www.pogodaiklimat.ru

Погода и климат >> Архив погоды >> Мозамбик >> Иньямбане


ПОГОДА в Иньямбане

  • Прогноз погоды в Иньямбане
  • Монитор погоды в Иньямбане

АРХИВ ПОГОДЫ в Иньямбане

Время (UTC), дата Ветер
(напр.,м/с)
 
Видим.   Явления Облачность Т
(С)
Тd
(С)
f
(%)
Тe
(С)
Тes
(С)
Комфортность P
(гПа)
Po
(гПа)
Тmin
(С)
Tmax
(С)
R
(мм)
R24
(мм)
S
(см)
12 15.01 СВ 5 6000 м дождь {морось} 10/8 600 м
[Cu med, cong Ac As]
+28.5 +25.5 84 +42 +43 опасность
перегрева
1009.1 1009.0 0.8
15 15.01 СВ 5 8000 м слаб. дождь 10/8 300 м
[Cu med, cong Ac As]
+27.0 +25.6 92 +40 +40 очень
душно
1007.9 1008.0
18 15.01 СВ 4 8000 м слаб. морось {дождь} 10/8 300 м
[Cu med, cong Ac As]
+26.0 +24.3 90 +36 +36 очень
душно
1009.2 1009.0 +29.2 15
21 15.01 В 3 8000 м гроза, ливневой дождь 10/9 300 м
[Cb cap]
+25.2 +24.0 93 +35 +35 очень
душно
1011.2 1011.0
00 16.01 С 3 8000 м слаб. дождь {гроза} 10/9 300 м
[Cb cap]
+25.2 +24.3 95 +35 +35 очень
душно
1010.7 1011.0 33
03 16.01 С 2 9000 м слаб. морось {дождь} 10/10 300 м
[Cu Sc]
+25.5 +24.2 93 +35 +35 очень
душно
1008.7 1009.0
06 16.01 С 5 8000 м слаб. морось 10/10 300 м
[Cu Sc]
+26.0 +24.6 92 +37 +37 очень
душно
1009.1 1009.0 +24.9 48
09 16.01 С 3 15 км в посл. час морось 9/9 300 м
[Cb calv]
+26.5 +25.1 92 +38 +40 очень
душно
1009.4 1009.0
12 16.01 С 3 20 км {морось} 9/9 600 м
[Cu Sc]
+28.5 +25.8 85 +42 +44 опасность
перегрева
1008.0 1008.0 9
15 16.01 С 3 30 км {морось} 9/9 600 м
[Cu Sc]
+27.7 +25.3 87 +40 +41 очень
душно
1006.3 1006.0
18 16.01 СВ 2 10 км в посл. час морось 9/9 600 м
[Cu Sc]
+27.0 +25.3 90 +39 +39 очень
душно
1006.8 1007.0 +28.6 10
21 16.01 штиль 0 30 км зарница 8/8 600 м
[Cu Sc]
+26.5 +24.3 88 +37 +37 очень
душно
1007.9 1008.0
00 17.01 штиль 0 30 км 9/9 600 м
[Cu Sc]
+25.8 +24.4 92 +36 +36 очень
душно
1006.6 1007.0
03 17.01 штиль 0 7000 м слаб. дождь 10/10 300 м
[Cu Sc]
+25.1 +24.2 95 +35 +35 очень
душно
1005.9 1006.0
06 17.01 СВ 2 9000 м слаб. морось {дождь} 10/10 300 м
[Cu Sc]
+25.8 +24.8 94 +37 +37 очень
душно
1006.7 1007.0 +24.7 23
09 17.01 ЮВ 3 8000 м слаб. морось 10/10 300 м
[Cu Sc]
+26.5 +25.5 94 +39 +39 очень
душно
1007.2 1007.0
12 17.01 В 3 8000 м сильн. морось {ливн. осадки} 10/10 300 м
[Cu Sc]
+25.8 +25.2 96 +37 +37 очень
душно
1005.8 1006.0 24
15 17.01 ЮВ 5 8000 м слаб. морось {дождь} 10/10 300 м
[Cu Sc]
+26.2 +24.9 93 +37 +37 очень
душно
1005.5 1006.0
18 17.01 ЮВ 5 8000 м слаб. морось {дождь} 10/10 300 м
[Cu Sc]
+25.7 +24.4 93 +36 +36 очень
душно
1006.2 1006.0 +26.5 71
21 17.01 ЮВ 6 8000 м слаб. морось 10/10 300 м
[Cu Sc]
+26.5 +24.9 91 +38 +38 очень
душно
1007.2 1007.0
00 18.01 ЮВ 4 30 км {морось} 9/9 300 м
[Cu Sc]
+26.9 +24.5 87 +38 +38 очень
душно
1006.5 1007.0 2
03 18.01 В 5 8000 м слаб. морось 10/10 300 м
[Cu med, cong]
+26.7 +24.4 87 +37 +37 очень
душно
1006.0 1006.0
09 18.01 ЮВ 5 20 км в посл. час дождь {морось} 9/6 600 м
[Cu med, cong Ac As]
+28.0 +24.4 81 +39 +42 очень
душно
1007.8 1008.0
12 18.01 ЮВ 5 8000 м слаб. дождь {морось} 9/6 600 м
[Cu med, cong Ac As]
+28.0 +25.2 85 +41 +42 опасность
перегрева
1006.6 1007.0 2
15 18.01 Ю 5 30 км {дождь} 9/6 300 м
[Cu med, cong Ac As]
+27.6 +24.6 84 +39 +39 очень
душно
1005.1 1005.0
18 18.01 Ю 5 9000 м слаб. морось 9/6 300 м
[Cu med, cong Ac As]
+26.4 +24.7 90 +37 +37 очень
душно
1005.0 1005.0 +29.0 3
21 18.01 Ю 3 20 км {морось} 8/8 600 м
[Cu med, cong Ac As]
+27.0 +24.4 86 +38 +38 очень
душно
1005.9 1006.0
00 19.01 ЮВ 5 20 км в посл. час морось 9/9 300 м
[Cu Sc]
+25.5 +24.3 93 +35 +35 очень
душно
1004.5 1005.0 1
03 19.01 ЮВ 3 20 км в посл. час морось 10/10 300 м
[Cu Sc]
+26.3 +25.0 93 +38 +38 очень
душно
1003.6 1004.0
06 19.01 Ю 6 30 км {морось} 8/8 600 м
[Cu med, cong]
+28.2 +23.9 78 +39 +40 очень
душно
1005.0 1005.0 +25.3 9
09 19.01 Ю 6 9000 м слаб. морось 9/9 300 м
[Cu med, cong]
+29.2 +24.6 76 +41 +42 опасность
перегрева
1006.1 1006.0
12 19.01 Ю 6 30 км {морось} 8/8 300 м
[Cu med, cong]
+29.5 +23.0 68 +39 +41 очень
душно
1006.2 1006.0 0.1
15 19.01 Ю 8 30 км 8/8 600 м
[Cu med, cong]
+28.8 +23.3 72 +39 +39 очень
душно
1006.3 1006.0
18 19.01 Ю 6 30 км {морось} 8/8 300 м
[Cu med, cong]
+27.6 +23.9 80 +38 +38 очень
душно
1007.2 1007.0 +29.6 0.6
21 19.01 Ю 9 20 км в посл. час дождь {морось} 9/9 300 м
[Cu med, cong]
+25.4 +23.4 89 +34 +34 очень
душно
1010.0 1010.0
00 20.01 Ю 7 20 км {дождь, морось} 10/10 300 м
[Sc]
+25.0 +23.5 91 +34 +34 очень
душно
1010.6 1011.0 14
03 20.01 Ю 9 20 км в посл. час морось 10/10 300 м
[Sc]
+25.5 +23.3 88 +34 +34 очень
душно
1009.8 1010.0
06 20.01 Ю 9 10 км слаб. морось 10/10 300 м
[Sc]
+24.4 +22.3 88 +32 +32 очень
душно
1011.6 1012.0 +24.0 18
09 20.01 Ю 15 20 км в посл. час морось 9/9 300 м
[Sc]
+24.8 +21.2 80 +31 +31 очень
душно
1014.4 1014.0
12 20.01 Ю 15 30 км {морось} 9/9 300 м
[Sc]
+25.8 +20.3 72 +32 +32 очень
душно
1014.5 1015.0 0.3
15 20.01 Ю 15 30 км 9/9 300 м
[Sc]
+24.3 +19.8 76 +30 +30 очень
душно
1014.6 1015.0
18 20.01 Ю 11 30 км 10/10 300 м
[Sc]
+24.4 +19.3 73 +29 +29 душно 1015.7 1016.0 +26.2 0.3
21 20.01 Ю 11 30 км 10/10 300 м
[Sc]
+24.2 +19.4 75 +29 +29 душно 1016.9 1017.0
00 21.01 Ю 9 30 км 10/10 300 м
[Sc]
+24.5 +19.1 72 +29 +29 душно 1016.0 1016.0
03 21.01 Ю 8 9000 м слаб. морось 10/10 300 м
[Sc]
+23.0 +21.0 89 +31 +31 очень
душно
1015.6 1016.0
06 21.01 Ю 9 30 км {морось} 10/10 300 м
[Sc]
+24.5 +21.2 82 +31 +31 очень
душно
1016.2 1016.0 +22.5 1
09 21.01 Ю 8 15 км в посл. час морось 10/10 300 м
[Cu med, cong]
+23.5 +22.0 91 +30 +30 очень
душно
1016.3 1016.0
12 21.01 Ю 8 9000 м слаб. морось 10/10 300 м
[Cu med, cong]
+23.8 +22.6 93 +31 +31 очень
душно
1015.3 1015.0 3
15 21.01 Ю 6 5000 м слаб. дождь {морось} 10/10 300 м
[Cu med, cong]
+24.0 +23.3 96 +32 +32 очень
душно
1013.8 1014.0
18 21.01 Ю 6 20 км {дождь, морось} 9/9 300 м
[Cu med, cong]
+24.8 +22.9 89 +33 +33 очень
душно
1013.7 1014.0 +25.0 8
21 21.01 ЮВ 3 9000 м слаб. дождь {морось} 10/10 300 м
[Cu med, cong]
+25.4 +23.4 89 +34 +34 очень
душно
1014.4 1014.0
00 22.01 ЮВ 4 8000 м слаб. дождь {морось} 10/10 300 м
[Cu med, cong]
+24.9 +23.6 92 +34 +34 очень
душно
1012.8 1013.0 +25.5 3
03 22.01 ЮВ 2 20 км {дождь, морось} 8/8 600 м
[Cu Sc]
+24.3 +23.0 92 +32 +32 очень
душно
1012.4 1012.0
06 22.01 Ю 4 30 км {дождь} 9/9 600 м
[Cu med, cong]
+26.5 +23.3 83 +36 +36 очень
душно
1013.3 1013.0 +23.0 14
09 22.01 ЮВ 5 30 км 9/9 300 м
[Cu med, cong]
+28.0 +22.9 74 +37 +39 очень
душно
1013.2 1013.0

 

Местоположение метеостанции Иньямбане (Мозамбик): широта -23.87 долгота 35.38 высота над уровнем моря 15 м.

В архиве по умолчанию представлена погода в Иньямбане за последнюю неделю. Архивные данные за месяц целиком и за предыдущие месяцы, начиная с января 2011 года, Вы можете получить, выбрав интересующий диапазон дат из раскрывающегося списка и нажав кнопку "Ввод!".


*Определитесь, кто Вы:
робот инопланетянин человек

Внимание! Время в таблицах - всемирное. Для получения местного времени необходимо прибавить поправку, которая равна 2 ч.

Смотрите также архив погоды в соседних городах и на ближайших метеорологических станциях:

Погода в Панда (Мозамбик) (137 км)
Погода в Виланкуло (Мозамбик) (208 км)
Погода в Шаи-Шаи (Мозамбик) (220 км)
Погода в Вувулане (Свазиленд) (357 км)
Погода в Массанджена (Мозамбик) (357 км)
Погода в Мапуто (Мозамбик) (363 км)
Погода в Коматидрааи (Южная Африка) (396 км)
Погода в Скукузе (Южная Африка) (402 км)
Погода в Чангалане (Мозамбик) (419 км)
Погода в Пхалаборве (Южная Африка) (429 км)

Пояснения к столбцам:

Ветер - указаны скорость ветра в м/с - средняя за 10 мин, порывы в срок и между сроками (в фигурных скобках) и направление, откуда дует ветер: С - северный, СВ - северо-восточный, В - восточный, ЮВ - юго-восточный, Ю - южный, ЮЗ - юго-западный, З - западный, СЗ - северо-западный.
Видимость - горизонтальная дальность видимости в метрах или километрах. При видимости от 1 до 10 км при отсутствии осадков обычно наблюдается дымка, при ухудшении видимости до 1 км и менее - туман. В сухую погоду видимость может ухудшаться дымом, пылью или мглою.
Явления - указаны атмосферные явления, наблюдавшиеся в срок или в последний час перед сроком; фигурными скобками обозначены явления, наблюдавшиеся между сроками (за 1-3 часа до срока); квадратными скобками обозначены град или гололедные отложения с указанием их диаметра в мм.
Облачность - указаны через наклонную черту общая и нижняя облачность в баллах и высота нижней границы облаков в метрах; квадратными скобками обозначены формы облаков: Ci - перистые, Cs - перисто-слоистые, Cc - перисто-кучевые, Ac - высококучевые, As - высокослоистые, Sc - слоисто-кучевые, Ns - слоисто-дождевые, Cu - кучевые, Cb - кучево-дождевые. Подробнее классификацию облаков см. в Атласе облаков (PDF).
T - Температура воздуха - температура, измеренная на высоте 2 м над землей.
Td - Температура точки росы - температура, при понижении до которой содержащийся в воздухе водяной пар достигнет насыщения.
f - Относительная влажность воздуха - влажноcть воздуха, измеренная на высоте 2 м над землей.
Te - Эффективная температура - температура, которую ощущает одетый по сезону человек в тени. Характеристика душности погоды. При расчете учитывается влияние влажности воздуха и скорости ветра на теплоощущения человека.
Tes - Эффективная температура на солнце - температура, которую ощущает человек, с поправкой на солнечный нагрев. Характеристика знойности погоды. Зависит от высоты солнца над горизонтом, облачности и скорости ветра. Ночью, в пасмурную погоду, а также при ветре 12 м/с и более поправка равна нулю.
P - Атмосферное давление - приведенное к уровню моря атмосферное давление.
Po - Атмосферное давление - измеренное на уровне метеостанции атмосферное давление.
Tmin - Минимальная температура - минимум температуры воздуха на высоте 2 м над землей.
Tmax - Максимальная температура - максимум температуры воздуха на высоте 2 м над землей.
R - Количество осадков - Количество выпавших осадков за период времени, мм. При наведении курсора мыши на число - период времени, за который выпало указанное количество осадков.
R24 - Количество осадков - Количество выпавших осадков за 24 часа, мм.
S - Снежный покров - Высота снежного покрова, см. При наведении курсора мыши на число - состояние снежного покрова и степень покрытия местности в баллах.